Weather History for HECA - July, 2013

Change the Weather History Date:

Tuesday, July 30, 2013

  Actual Average Record
Temperature  
Mean Temperature 85 °F -  
Max Temperature 95 °F 92 °F 109 °F (2000)
Min Temperature 75 °F 73 °F 41 °F (1997)
Cooling Degree Days 20    
Growing Degree Days 35 (Base 50)    
Moisture  
Dew Point 57 °F    
Average Humidity 42    
Maximum Humidity 78    
Minimum Humidity 11    
Precipitation  
Precipitation 0.00 in 0.00 in - ()
Sea Level Pressure  
Sea Level Pressure 29.77 in    
Wind  
Wind Speed 7 mph ()    
Max Wind Speed 15 mph    
Max Gust Speed -    
Visibility 5.5 miles    
Events      
Averages and records for this station are not official NWS values.
T = Trace of Precipitation, MM = Missing Value Source: Averaged Metar Reports

Daily Weather History Graph

Daily Weather History Graph

Search for Another Location

Airport or City:

Trip Planner

Search our weather history database for the weather conditions in past years. The results will help you decide how hot, cold, wet, or windy it might be!

Date:

Astronomy

Jul. 30, 2013 Rise Set
Actual Time 5:11 AM EET 6:49 PM EET
Civil Twilight 4:45 AM EET 7:15 PM EET
Nautical Twilight 4:14 AM EET 7:46 PM EET
Astronomical Twilight 3:41 AM EET 8:19 PM EET
Moon 11:53 PM EET (7/30) 12:52 PM EET (7/30)
Length of Visible Light 14h 29m
Length of Day
13h 37m
Last Quarter, 43% of the Moon is Illuminated
Jul 30
Last Quarter
Aug 6
New
Aug 14
First Quarter
Aug 21
Full
Aug 28
Last Quarter

Hourly Weather History & Observations

Time (EET) Temp. Heat Index Dew Point Humidity Pressure Visibility Wind Dir Wind Speed Gust Speed Precip Events Conditions
12:00 AM 80.6 °F 82.3 °F 64.4 °F 58% 29.80 in - NE 6.9 mph - N/A   Clear
12:30 AM 80.6 °F 82.7 °F 66.2 °F 61% 29.80 in - ENE 11.5 mph - N/A   Clear
1:00 AM 78.8 °F - 66.2 °F 65% 29.80 in - NE 6.9 mph - N/A   Clear
1:30 AM 78.8 °F - 66.2 °F 65% 29.80 in - NE 9.2 mph - N/A   Clear
2:00 AM 77 °F - 67 °F 64% 29.79 in 6 mi NNE 10.4 mph - -  
2:00 AM 77.0 °F - 68.0 °F 74% 29.77 in - NNE 10.4 mph - N/A   Clear
2:30 AM 77.0 °F - 68.0 °F 74% 29.77 in - NNE 10.4 mph - N/A   Clear
3:00 AM 77.0 °F - 68.0 °F 74% 29.77 in - NE 9.2 mph - N/A   Clear
3:30 AM 77.0 °F - 68.0 °F 74% 29.77 in - NE 9.2 mph - N/A   Clear
4:00 AM 75.2 °F - 68.0 °F 78% 29.77 in - NE 8.1 mph - N/A   Clear
4:30 AM 75.2 °F - 66.2 °F 73% 29.77 in - East 6.9 mph - N/A   Clear
5:00 AM 75.2 °F - 66.2 °F 73% 29.77 in - East 6.9 mph - N/A   Clear
5:30 AM 75.2 °F - 66.2 °F 73% 29.77 in 3.7 mi East 6.9 mph - N/A   Unknown
6:00 AM 77.0 °F - 64.4 °F 65% 29.80 in - Calm Calm - N/A   Clear
6:30 AM 78.8 °F - 66.2 °F 65% 29.80 in - NNE 3.5 mph - N/A   Clear
7:00 AM 78.8 °F - 66.2 °F 65% 29.80 in - NNE 2.3 mph - N/A   Clear
7:30 AM 82.4 °F 82.9 °F 60.8 °F 48% 29.80 in - North - - N/A   Clear
8:00 AM 84 °F - 52 °F 23% 29.81 in 6 mi Calm Calm - -  
8:00 AM 84.2 °F - 51.8 °F 33% 29.80 in - Calm Calm - N/A   Clear
8:30 AM 84.2 °F - 51.8 °F 33% 29.80 in - Calm Calm - N/A   Clear
9:00 AM 87.8 °F - 51.8 °F 29% 29.80 in - NW 3.5 mph - N/A   Clear
9:30 AM 87.8 °F - 51.8 °F 29% 29.80 in - NW 3.5 mph - N/A   Clear
10:00 AM 87.8 °F - 50.0 °F 27% 29.80 in - North 5.8 mph - N/A   Clear
10:30 AM 89.6 °F - 50.0 °F 26% 29.80 in - NNW 4.6 mph - N/A   Clear
11:00 AM 91.4 °F - 51.8 °F 26% 29.77 in - West 5.8 mph - N/A   Clear
11:30 AM 91.4 °F - 50.0 °F 24% 29.77 in - NW 6.9 mph - N/A   Clear
12:00 PM 91.4 °F - 50.0 °F 24% 29.77 in - NW 6.9 mph - N/A   Clear
12:30 PM 91.4 °F - 50.0 °F 24% 29.77 in - NW 6.9 mph - N/A   Clear
1:00 PM 93.2 °F - 42.8 °F 17% 29.74 in - WNW 11.5 mph - N/A   Clear
1:30 PM 93.2 °F - 42.8 °F 17% 29.74 in - WNW 11.5 mph - N/A   Clear
2:00 PM 94 °F - 46 °F 11% 29.74 in 6 mi NNW 6.9 mph - -  
2:00 PM 95.0 °F - 46.4 °F 19% 29.74 in - NNW 6.9 mph - N/A   Clear
2:30 PM 95.0 °F - 50.0 °F 22% 29.74 in - NNW 10.4 mph - N/A   Clear
3:00 PM 95.0 °F - 50.0 °F 22% 29.74 in - NW 11.5 mph - N/A   Clear
3:30 PM 93.2 °F - 51.8 °F 24% 29.74 in - NW 11.5 mph - N/A   Clear
4:00 PM 93.2 °F - 50.0 °F 23% 29.74 in - NW 11.5 mph - N/A   Clear
4:30 PM 93.2 °F - 50.0 °F 23% 29.71 in - NW 9.2 mph - N/A   Clear
5:00 PM 93.2 °F - 50.0 °F 23% 29.71 in - NNW 10.4 mph - N/A   Clear
5:30 PM 93.2 °F - 50.0 °F 23% 29.71 in - NNW 10.4 mph - N/A   Clear
6:00 PM 91.4 °F - 51.8 °F 26% 29.71 in - NNW 9.2 mph - N/A   Clear
6:30 PM 91.4 °F 89.1 °F 53.6 °F 28% 29.74 in - North 10.4 mph - N/A   Clear
7:00 PM 89.6 °F 88.9 °F 59.0 °F 36% 29.74 in - NNW 11.5 mph - N/A   Clear
7:30 PM 87.8 °F 87.1 °F 59.0 °F 38% 29.74 in - North 15.0 mph - N/A   Clear
8:00 PM 87 °F - 63 °F 35% 29.76 in 6 mi North 13.8 mph - -  
8:00 PM 86.0 °F 86.6 °F 62.6 °F 45% 29.77 in - North 13.8 mph - N/A   Clear
8:30 PM 86.0 °F 86.6 °F 62.6 °F 45% 29.77 in - North 13.8 mph - N/A   Clear
9:00 PM 84.2 °F 83.5 °F 57.2 °F 40% 29.77 in - North 10.4 mph - N/A   Clear
9:30 PM 84.2 °F 83.5 °F 57.2 °F 40% 29.77 in - North 10.4 mph - N/A   Clear
10:00 PM 82.4 °F 83.4 °F 62.6 °F 51% 29.77 in - North 6.9 mph - N/A   Clear
10:30 PM 82.4 °F 83.4 °F 62.6 °F 51% 29.77 in - North 6.9 mph - N/A   Clear
11:00 PM 80.6 °F 81.5 °F 60.8 °F 51% 29.74 in - North 5.8 mph - N/A   Clear
11:30 PM 80.6 °F 81.5 °F 60.8 °F 51% 29.74 in - North 5.8 mph - N/A   Clear